Вернуться в каталог

STARLINK-33659

АктивенСвязьVLEO
NORAD 63445·PAYLOAD·🇺🇸 United States

Запущен Apr 4, 2025 с Vandenberg Space Force Base

Loading…

Ближайшие Пролёты (ближайшие 24 часа)

TLE

СвежийSource: CelesTrak SupGP

Эпоха: Sep 14, 2026, 21:47 UTC

1 63445C 25069N   26257.90812500 -.00011730  00000+0 -34666-3 0  2579
2 63445  53.1604 334.0988 0001170  80.7455  80.9344 15.34388833    11

Отслеживайте STARLINK-33659 в реальном времени с AllMySat

Download on the App Store